Location: Unspecified
(0.0000°N, 0.0000°E)
Time: 11:08:28
(UTC+00:00)

COSMOS 2391 - Visible Passes

Search period start: 05 June 2023 00:00
Search period end: 15 June 2023 00:00
Orbit: 1465 x 1507 km, 82.5° (Epoch: 04 June)

Date Brightness Start Highest point End Pass type
(mag) Time Alt. Az. Time Alt. Az. Time Alt. Az.
05 Jun 9.1 03:21:11 15° SSE 03:28:16 48° E 03:36:35 10° NNE visible
05 Jun 9.4 05:18:16 10° SW 05:24:29 21° W 05:30:43 10° NW visible
06 Jun 10.3 02:31:12 11° SE 02:36:48 20° E 02:42:41 10° NE visible
06 Jun 8.5 04:27:02 21° SSW 04:33:02 51° W 04:41:27 10° NNW visible
07 Jun 8.4 03:36:55 32° S 03:41:35 76° E 03:50:20 10° N visible
07 Jun 9.8 05:35:23 10° WSW 05:37:47 11° W 05:40:12 10° WNW visible
08 Jun 9.6 02:46:43 26° SE 02:50:07 34° E 02:57:42 10° NNE visible
08 Jun 9.0 04:42:32 23° SW 04:46:19 31° W 04:53:47 10° NNW visible
09 Jun 10.5 01:56:26 11° ESE 01:58:37 13° E 02:01:58 10° ENE visible
09 Jun 8.3 03:52:14 49° SSW 03:54:52 71° W 04:03:36 10° N visible
10 Jun 8.8 03:01:52 49° SE 03:03:25 54° E 03:11:53 10° NNE visible
10 Jun 9.5 04:57:40 17° WSW 04:59:37 18° W 05:05:09 10° NW visible
11 Jun 10.0 02:11:27 23° E 02:11:57 23° E 02:18:25 10° NE visible
11 Jun 8.6 04:07:15 43° WSW 04:08:10 44° W 04:16:22 10° NNW visible
12 Jun 8.3 03:16:45 85° E 03:16:45 85° E 03:25:30 10° N visible
13 Jun 9.4 02:26:13 37° E 02:26:13 37° E 02:33:08 10° NNE visible
13 Jun 9.2 04:22:01 27° W 04:22:01 27° W 04:28:30 10° NNW visible
14 Jun 10.5 01:35:38 14° E 01:35:38 14° E 01:38:19 10° ENE visible
14 Jun 8.5 03:31:25 56° NW 03:31:25 56° NW 03:38:38 10° N visible
